Time,TemperatureF,DewpointF,PressureIn,WindDirection,WindDirectionDegrees,WindSpeedMPH,WindSpeedGustMPH,Humidity,HourlyPrecipIn,Conditions,Clouds,dailyrainin,SoftwareType,DateUTC
2013-01-31 00:01:00,19.0,13.0,29.88,SSW,193,0.0,1.0,77,0.00,,,0.00,,2013-01-31 06:01:00,
2013-01-31 08:02:00,19.0,12.0,30.10,ENE,78,4.0,8.0,73,0.00,,,0.00,,2013-01-31 14:02:00,
2013-01-31 08:11:00,19.0,12.0,30.10,ENE,78,4.0,8.0,73,0.00,,,0.00,,2013-01-31 14:11:00,
2013-01-31 08:22:00,19.0,11.0,30.11,WSW,252,2.0,8.0,71,0.00,,,0.00,,2013-01-31 14:22:00,
2013-01-31 08:32:00,18.0,10.0,30.13,SW,229,4.0,13.0,69,0.00,,,0.00,,2013-01-31 14:32:00,
2013-01-31 08:42:00,18.0,10.0,30.13,SW,229,4.0,13.0,69,0.00,,,0.00,,2013-01-31 14:42:00,
2013-01-31 08:52:00,17.0,8.0,30.14,North,5,3.0,10.0,68,0.00,,,0.00,,2013-01-31 14:52:00,
2013-01-31 09:03:00,17.0,7.0,30.16,WSW,249,5.0,12.0,63,0.00,,,0.00,,2013-01-31 15:03:00,
2013-01-31 09:12:00,17.0,7.0,30.16,WSW,249,5.0,12.0,63,0.00,,,0.00,,2013-01-31 15:12:00,
2013-01-31 09:22:00,16.0,6.0,30.18,SW,233,4.0,14.0,65,0.00,,,0.00,,2013-01-31 15:22:00,
2013-01-31 09:32:00,15.0,5.0,30.20,SW,232,5.0,17.0,63,0.00,,,0.00,,2013-01-31 15:32:00,
2013-01-31 09:42:00,15.0,5.0,30.20,SW,232,5.0,17.0,63,0.00,,,0.00,,2013-01-31 15:42:00,
2013-01-31 09:51:00,15.0,5.0,30.20,SW,232,5.0,17.0,63,0.00,,,0.00,,2013-01-31 15:51:00,
2013-01-31 10:03:00,15.0,5.0,30.24,SW,217,3.0,13.0,65,0.00,,,0.00,,2013-01-31 16:03:00,
2013-01-31 10:12:00,15.0,5.0,30.24,SW,217,3.0,13.0,65,0.00,,,0.00,,2013-01-31 16:12:00,
2013-01-31 10:22:00,14.0,3.0,30.25,West,265,5.0,12.0,60,0.00,,,0.00,,2013-01-31 16:22:00,
2013-01-31 10:33:00,14.0,2.0,30.26,ESE,106,5.0,13.0,59,0.00,,,0.00,,2013-01-31 16:33:00,
2013-01-31 10:42:00,14.0,2.0,30.26,ESE,106,5.0,13.0,59,0.00,,,0.00,,2013-01-31 16:42:00,
2013-01-31 10:51:00,14.0,2.0,30.28,SW,221,6.0,12.0,58,0.00,,,0.00,,2013-01-31 16:51:00,
2013-01-31 11:02:00,14.0,2.0,30.29,WSW,251,5.0,15.0,59,0.00,,,0.00,,2013-01-31 17:02:00,
2013-01-31 11:12:00,14.0,2.0,30.29,WSW,251,5.0,15.0,59,0.00,,,0.00,,2013-01-31 17:12:00,
2013-01-31 11:23:00,14.0,2.0,30.30,West,280,4.0,14.0,59,0.00,,,0.00,,2013-01-31 17:23:00,
2013-01-31 11:32:00,13.0,1.0,30.30,WSW,253,2.0,7.0,58,0.00,,,0.00,,2013-01-31 17:32:00,
2013-01-31 11:43:00,13.0,1.0,30.30,WSW,253,2.0,7.0,58,0.00,,,0.00,,2013-01-31 17:43:00,
2013-01-31 11:53:00,14.0,2.0,30.31,West,267,5.0,11.0,59,0.00,,,0.00,,2013-01-31 17:53:00,
2013-01-31 12:03:00,15.0,2.0,30.31,NNW,331,4.0,14.0,56,0.00,,,0.00,,2013-01-31 18:03:00,
2013-01-31 12:12:00,15.0,2.0,30.31,NNW,331,4.0,14.0,56,0.00,,,0.00,,2013-01-31 18:12:00,
2013-01-31 12:22:00,15.0,2.0,30.31,NNW,331,4.0,14.0,56,0.00,,,0.00,,2013-01-31 18:22:00,
2013-01-31 12:32:00,15.0,1.0,30.32,SW,223,4.0,9.0,52,0.00,,,0.00,,2013-01-31 18:32:00,
2013-01-31 12:43:00,15.0,1.0,30.32,SW,223,4.0,9.0,52,0.00,,,0.00,,2013-01-31 18:43:00,
2013-01-31 12:52:00,16.0,1.0,30.32,SW,232,6.0,12.0,50,0.00,,,0.00,,2013-01-31 18:52:00,
2013-01-31 13:02:00,16.0,1.0,30.32,SW,232,6.0,12.0,50,0.00,,,0.00,,2013-01-31 19:02:00,
2013-01-31 13:12:00,16.0,1.0,30.32,SW,232,6.0,12.0,50,0.00,,,0.00,,2013-01-31 19:12:00,
2013-01-31 13:22:00,16.0,0.0,30.32,WSW,250,6.0,15.0,49,0.00,,,0.00,,2013-01-31 19:22:00,
2013-01-31 13:32:00,17.0,1.0,30.32,WNW,301,4.0,13.0,48,0.00,,,0.00,,2013-01-31 19:32:00,
2013-01-31 13:42:00,17.0,1.0,30.32,WNW,301,4.0,13.0,48,0.00,,,0.00,,2013-01-31 19:42:00,
2013-01-31 13:51:00,17.0,0.0,30.32,NW,309,5.0,13.0,46,0.00,,,0.00,,2013-01-31 19:51:00,
2013-01-31 14:02:00,16.0,0.0,30.32,SW,233,6.0,12.0,48,0.00,,,0.00,,2013-01-31 20:02:00,
2013-01-31 14:11:00,16.0,0.0,30.32,SW,233,6.0,12.0,48,0.00,,,0.00,,2013-01-31 20:11:00,
2013-01-31 14:22:00,16.0,-1.0,30.31,WSW,254,4.0,13.0,47,0.00,,,0.00,,2013-01-31 20:22:00,
2013-01-31 14:31:00,18.0,0.0,30.30,WSW,246,5.0,12.0,45,0.00,,,0.00,,2013-01-31 20:31:00,
2013-01-31 14:42:00,18.0,0.0,30.30,WSW,246,5.0,12.0,45,0.00,,,0.00,,2013-01-31 20:42:00,
2013-01-31 14:52:00,18.0,-1.0,30.30,SW,234,4.0,10.0,43,0.00,,,0.00,,2013-01-31 20:52:00,
2013-01-31 15:02:00,17.0,0.0,30.30,South,182,3.0,13.0,46,0.00,,,0.00,,2013-01-31 21:02:00,
2013-01-31 15:12:00,17.0,0.0,30.30,South,182,3.0,13.0,46,0.00,,,0.00,,2013-01-31 21:12:00,
2013-01-31 15:22:00,18.0,0.0,30.30,WSW,256,4.0,16.0,45,0.00,,,0.00,,2013-01-31 21:22:00,
2013-01-31 15:32:00,18.0,0.0,30.31,WSW,242,2.0,8.0,45,0.00,,,0.00,,2013-01-31 21:32:00,
2013-01-31 15:42:00,18.0,0.0,30.31,WSW,242,2.0,8.0,45,0.00,,,0.00,,2013-01-31 21:42:00,
2013-01-31 15:52:00,17.0,0.0,30.31,WNW,292,2.0,7.0,46,0.00,,,0.00,,2013-01-31 21:52:00,
2013-01-31 16:03:00,17.0,0.0,30.31,WNW,292,2.0,7.0,46,0.00,,,0.00,,2013-01-31 22:03:00,
2013-01-31 16:11:00,17.0,0.0,30.31,WNW,292,2.0,7.0,46,0.00,,,0.00,,2013-01-31 22:11:00,
2013-01-31 16:22:00,16.0,-1.0,30.32,WNW,283,2.0,9.0,47,0.00,,,0.00,,2013-01-31 22:22:00,
2013-01-31 16:33:00,17.0,0.0,30.32,West,261,2.0,7.0,47,0.00,,,0.00,,2013-01-31 22:33:00,
2013-01-31 16:42:00,17.0,0.0,30.32,West,261,2.0,7.0,47,0.00,,,0.00,,2013-01-31 22:42:00,
2013-01-31 16:51:00,17.0,0.0,30.32,SW,225,3.0,8.0,47,0.00,,,0.00,,2013-01-31 22:51:00,
2013-01-31 17:02:00,17.0,1.0,30.32,West,264,2.0,6.0,49,0.00,,,0.00,,2013-01-31 23:02:00,
2013-01-31 17:12:00,17.0,1.0,30.32,West,264,2.0,6.0,49,0.00,,,0.00,,2013-01-31 23:12:00,
2013-01-31 17:22:00,17.0,0.0,30.32,WSW,250,1.0,6.0,47,0.00,,,0.00,,2013-01-31 23:22:00,
2013-01-31 17:32:00,17.0,1.0,30.32,SW,233,2.0,4.0,49,0.00,,,0.00,,2013-01-31 23:32:00,
2013-01-31 17:42:00,17.0,1.0,30.32,SW,233,2.0,4.0,49,0.00,,,0.00,,2013-01-31 23:42:00,
2013-01-31 17:52:00,17.0,1.0,30.32,SW,234,1.0,6.0,49,0.00,,,0.00,,2013-01-31 23:52:00,
2013-01-31 18:01:00,16.0,1.0,30.32,WSW,246,2.0,6.0,50,0.00,,,0.00,,2013-02-01 00:01:00,
2013-01-31 18:11:00,16.0,1.0,30.32,WSW,246,2.0,6.0,50,0.00,,,0.00,,2013-02-01 00:11:00,
2013-01-31 18:22:00,16.0,2.0,30.32,WSW,240,0.0,2.0,52,0.00,,,0.00,,2013-02-01 00:22:00,
2013-01-31 18:32:00,15.0,2.0,30.32,WSW,247,0.0,2.0,55,0.00,,,0.00,,2013-02-01 00:32:00,
2013-01-31 18:42:00,15.0,2.0,30.32,WSW,247,0.0,2.0,55,0.00,,,0.00,,2013-02-01 00:42:00,
2013-01-31 18:51:00,15.0,2.0,30.31,WSW,245,0.0,3.0,56,0.00,,,0.00,,2013-02-01 00:51:00,
2013-01-31 19:01:00,15.0,2.0,30.31,NW,317,0.0,3.0,56,0.00,,,0.00,,2013-02-01 01:01:00,
2013-01-31 19:11:00,15.0,2.0,30.30,East,82,0.0,2.0,55,0.00,,,0.00,,2013-02-01 01:11:00,
2013-01-31 19:21:00,15.0,2.0,30.30,East,82,0.0,2.0,55,0.00,,,0.00,,2013-02-01 01:21:00,
2013-01-31 19:32:00,14.0,1.0,30.31,East,80,0.0,0.0,55,0.00,,,0.00,,2013-02-01 01:32:00,
2013-01-31 19:42:00,14.0,1.0,30.31,East,80,0.0,0.0,55,0.00,,,0.00,,2013-02-01 01:42:00,
2013-01-31 19:52:00,14.0,2.0,30.33,East,80,0.0,0.0,57,0.00,,,0.00,,2013-02-01 01:52:00,
2013-01-31 20:02:00,14.0,2.0,30.34,ENE,71,1.0,4.0,57,0.00,,,0.00,,2013-02-01 02:02:00,
2013-01-31 20:11:00,14.0,2.0,30.34,ENE,71,1.0,4.0,57,0.00,,,0.00,,2013-02-01 02:11:00,
2013-01-31 20:21:00,13.0,1.0,30.34,NNE,22,0.0,3.0,57,0.00,,,0.00,,2013-02-01 02:21:00,
2013-01-31 20:32:00,13.0,1.0,30.34,ENE,61,0.0,3.0,57,0.00,,,0.00,,2013-02-01 02:32:00,
2013-01-31 20:42:00,13.0,1.0,30.34,ENE,61,0.0,3.0,57,0.00,,,0.00,,2013-02-01 02:42:00,
2013-01-31 20:52:00,13.0,1.0,30.35,ENE,63,1.0,3.0,58,0.00,,,0.00,,2013-02-01 02:52:00,
2013-01-31 21:02:00,13.0,2.0,30.35,NE,47,1.0,4.0,60,0.00,,,0.00,,2013-02-01 03:02:00,
2013-01-31 21:12:00,13.0,2.0,30.35,NE,47,1.0,4.0,60,0.00,,,0.00,,2013-02-01 03:12:00,
2013-01-31 21:21:00,13.0,2.0,30.35,NE,47,0.0,4.0,61,0.00,,,0.00,,2013-02-01 03:21:00,
2013-01-31 21:32:00,14.0,3.0,30.35,NNE,32,1.0,3.0,60,0.00,,,0.00,,2013-02-01 03:32:00,
2013-01-31 21:42:00,14.0,3.0,30.35,NNE,32,1.0,3.0,60,0.00,,,0.00,,2013-02-01 03:42:00,
2013-01-31 21:51:00,14.0,3.0,30.36,NE,38,0.0,3.0,60,0.00,,,0.00,,2013-02-01 03:51:00,
2013-01-31 22:02:00,14.0,3.0,30.36,NE,43,0.0,2.0,60,0.00,,,0.00,,2013-02-01 04:02:00,
2013-01-31 22:11:00,14.0,3.0,30.36,NE,43,0.0,2.0,60,0.00,,,0.00,,2013-02-01 04:11:00,
2013-01-31 22:21:00,13.0,2.0,30.36,NE,36,0.0,2.0,60,0.00,,,0.00,,2013-02-01 04:21:00,
2013-01-31 22:32:00,13.0,2.0,30.36,NE,36,0.0,2.0,61,0.00,,,0.00,,2013-02-01 04:32:00,
2013-01-31 22:41:00,13.0,2.0,30.36,NE,36,0.0,2.0,61,0.00,,,0.00,,2013-02-01 04:41:00,
2013-01-31 22:51:00,13.0,2.0,30.36,NE,35,0.0,2.0,61,0.00,,,0.00,,2013-02-01 04:51:00,
2013-01-31 23:03:00,13.0,2.0,30.36,NNE,31,0.0,2.0,62,0.00,,,0.00,,2013-02-01 05:03:00,
2013-01-31 23:11:00,13.0,2.0,30.36,NNE,31,0.0,2.0,62,0.00,,,0.00,,2013-02-01 05:11:00,
2013-01-31 23:22:00,12.0,2.0,30.35,NE,34,0.0,3.0,64,0.00,,,0.00,,2013-02-01 05:22:00,
2013-01-31 23:32:00,12.0,3.0,30.35,NE,34,0.0,1.0,67,0.00,,,0.00,,2013-02-01 05:32:00,
2013-01-31 23:42:00,12.0,3.0,30.35,NE,34,0.0,1.0,67,0.00,,,0.00,,2013-02-01 05:42:00,
2013-01-31 23:52:00,12.0,3.0,30.35,NE,36,0.0,2.0,66,0.00,,,0.00,,2013-02-01 05:52:00,